Wetterdaten: Samstag, 05.04.2014
Datum Zeit Temperatur Luftfeuchte Luftdruck Regen Wind Richtung Richtung Taupunkt Windchill Windben
05.04.2014 00:00 6,6 C 76 % 1010,1 hPa 0,0 l/m 0,0 km/h (0 Bft) SW 225 2,7 C 0,0 C 0,0 km/h (0 Bft)
05.04.2014 00:05 6,6 C 76 % 1010,1 hPa 0,0 l/m 0,0 km/h (0 Bft) SW 225 2,7 C 0,0 C 0,0 km/h (0 Bft)
05.04.2014 00:10 6,3 C 76 % 1010,2 hPa 0,0 l/m 0,0 km/h (0 Bft) SW 225 2,4 C 0,0 C 0,0 km/h (0 Bft)
05.04.2014 00:15 6,5 C 78 % 1010,2 hPa 0,0 l/m 0,0 km/h (0 Bft) SW 225 2,9 C 0,0 C 0,0 km/h (0 Bft)
05.04.2014 00:20 6,8 C 78 % 1010,2 hPa 0,0 l/m 0,0 km/h (0 Bft) SW 225 3,2 C 0,0 C 0,0 km/h (0 Bft)
05.04.2014 00:25 7,0 C 77 % 1010,2 hPa 0,0 l/m 0,0 km/h (0 Bft) SW 225 3,2 C 0,0 C 0,0 km/h (0 Bft)
05.04.2014 00:30 7,0 C 77 % 1010,2 hPa 0,0 l/m 0,0 km/h (0 Bft) SW 225 3,2 C 0,0 C 0,0 km/h (0 Bft)
05.04.2014 00:35 6,9 C 77 % 1010,2 hPa 0,0 l/m 0,0 km/h (0 Bft) SW 225 3,2 C 0,0 C 0,0 km/h (0 Bft)
05.04.2014 00:40 6,8 C 77 % 1010,2 hPa 0,0 l/m 0,0 km/h (0 Bft) SW 225 3,1 C 0,0 C 0,0 km/h (0 Bft)
05.04.2014 00:45 6,4 C 78 % 1010,2 hPa 0,0 l/m 0,0 km/h (0 Bft) SW 225 2,8 C 0,0 C 0,0 km/h (0 Bft)
05.04.2014 00:50 6,5 C 78 % 1010,5 hPa 0,0 l/m 0,0 km/h (0 Bft) SW 225 2,9 C 0,0 C 0,0 km/h (0 Bft)
05.04.2014 00:55 6,6 C 78 % 1010,5 hPa 0,0 l/m 0,0 km/h (0 Bft) SW 225 3,0 C 0,0 C 0,0 km/h (0 Bft)
05.04.2014 01:00 6,5 C 78 % 1010,5 hPa 0,0 l/m 0,0 km/h (0 Bft) SW 225 2,9 C 0,0 C 0,0 km/h (0 Bft)
05.04.2014 01:05 6,6 C 78 % 1010,5 hPa 0,0 l/m 0,0 km/h (0 Bft) SW 225 3,0 C 0,0 C 0,0 km/h (0 Bft)
05.04.2014 01:10 6,5 C 78 % 1010,5 hPa 0,0 l/m 0,0 km/h (0 Bft) SW 225 2,9 C 0,0 C 0,0 km/h (0 Bft)
05.04.2014 01:15 6,8 C 77 % 1010,5 hPa 0,0 l/m 0,0 km/h (0 Bft) SW 225 3,1 C 0,0 C 0,0 km/h (0 Bft)
05.04.2014 01:20 6,8 C 77 % 1010,5 hPa 0,0 l/m 0,0 km/h (0 Bft) SW 225 3,1 C 0,0 C 0,0 km/h (0 Bft)
05.04.2014 01:25 6,7 C 77 % 1010,5 hPa 0,0 l/m 0,0 km/h (0 Bft) SW 225 3,0 C 0,0 C 0,0 km/h (0 Bft)
05.04.2014 01:30 6,9 C 77 % 1010,3 hPa 0,0 l/m 0,0 km/h (0 Bft) SW 225 3,2 C 0,0 C 0,0 km/h (0 Bft)
05.04.2014 01:35 6,0 C 76 % 1010,3 hPa 0,0 l/m 0,0 km/h (0 Bft) SW 225 2,1 C 0,0 C 0,0 km/h (0 Bft)
05.04.2014 01:40 5,5 C 77 % 1010,3 hPa 0,0 l/m 0,0 km/h (0 Bft) SW 225 1,8 C 0,0 C 0,0 km/h (0 Bft)
05.04.2014 01:45 5,8 C 78 % 1010,3 hPa 0,0 l/m 0,0 km/h (0 Bft) SW 225 2,3 C 0,0 C 0,0 km/h (0 Bft)
05.04.2014 01:50 6,5 C 78 % 1010,6 hPa 0,0 l/m 0,0 km/h (0 Bft) SW 225 2,9 C 0,0 C 0,0 km/h (0 Bft)
05.04.2014 01:55 6,6 C 77 % 1010,6 hPa 0,0 l/m 0,0 km/h (0 Bft) SW 225 2,9 C 0,0 C 0,0 km/h (0 Bft)
05.04.2014 02:00 6,6 C 77 % 1010,6 hPa 0,0 l/m 0,0 km/h (0 Bft) SW 225 2,9 C 0,0 C 0,0 km/h (0 Bft)
05.04.2014 02:05 7,1 C 76 % 1010,6 hPa 0,0 l/m 0,0 km/h (0 Bft) SW 225 3,2 C 0,0 C 0,0 km/h (0 Bft)
05.04.2014 02:10 7,1 C 75 % 1010,6 hPa 0,0 l/m 0,0 km/h (0 Bft) SW 225 3,0 C 0,0 C 0,0 km/h (0 Bft)
05.04.2014 02:15 6,8 C 75 % 1010,6 hPa 0,0 l/m 0,0 km/h (0 Bft) SW 225 2,7 C 0,0 C 0,0 km/h (0 Bft)
05.04.2014 02:20 6,6 C 75 % 1010,6 hPa 0,0 l/m 0,0 km/h (0 Bft) SW 225 2,5 C 0,0 C 0,0 km/h (0 Bft)
05.04.2014 02:25 6,6 C 75 % 1010,6 hPa 0,0 l/m 0,0 km/h (0 Bft) SW 225 2,5 C 0,0 C 0,0 km/h (0 Bft)
05.04.2014 02:30 6,4 C 75 % 1010,6 hPa 0,0 l/m 0,0 km/h (0 Bft) SW 225 2,3 C 0,0 C 0,0 km/h (0 Bft)
05.04.2014 02:35 6,2 C 75 % 1010,6 hPa 0,0 l/m 0,0 km/h (0 Bft) SW 225 2,1 C 0,0 C 0,0 km/h (0 Bft)
05.04.2014 02:40 6,6 C 75 % 1010,6 hPa 0,0 l/m 0,0 km/h (0 Bft) SW 225 2,5 C 0,0 C 0,0 km/h (0 Bft)
05.04.2014 02:45 6,6 C 74 % 1010,6 hPa 0,0 l/m 0,0 km/h (0 Bft) SW 225 2,3 C 0,0 C 0,0 km/h (0 Bft)
05.04.2014 02:50 6,5 C 73 % 1010,6 hPa 0,0 l/m 0,0 km/h (0 Bft) SW 225 2,0 C 0,0 C 0,0 km/h (0 Bft)
05.04.2014 02:55 6,5 C 73 % 1010,6 hPa 0,0 l/m 0,0 km/h (0 Bft) SW 225 2,0 C 0,0 C 0,0 km/h (0 Bft)
05.04.2014 03:00 6,4 C 73 % 1010,6 hPa 0,0 l/m 0,0 km/h (0 Bft) SW 225 1,9 C 0,0 C 0,0 km/h (0 Bft)
05.04.2014 03:05 6,1 C 74 % 1010,6 hPa 0,0 l/m 0,0 km/h (0 Bft) SW 225 1,8 C 0,0 C 0,0 km/h (0 Bft)
05.04.2014 03:10 6,1 C 74 % 1010,5 hPa 0,0 l/m 0,0 km/h (0 Bft) SW 225 1,8 C 0,0 C 0,0 km/h (0 Bft)
05.04.2014 03:15 6,1 C 74 % 1010,5 hPa 0,0 l/m 0,0 km/h (0 Bft) SW 225 1,8 C 0,0 C 0,0 km/h (0 Bft)
05.04.2014 03:20 6,1 C 74 % 1010,5 hPa 0,0 l/m 0,0 km/h (0 Bft) SW 225 1,8 C 0,0 C 0,0 km/h (0 Bft)
05.04.2014 03:25 6,2 C 73 % 1010,5 hPa 0,0 l/m 0,0 km/h (0 Bft) SW 225 1,7 C 0,0 C 0,0 km/h (0 Bft)
05.04.2014 03:30 6,1 C 73 % 1010,6 hPa 0,0 l/m 0,0 km/h (0 Bft) SW 225 1,6 C 0,0 C 0,0 km/h (0 Bft)
05.04.2014 03:35 5,9 C 75 % 1010,6 hPa 0,0 l/m 0,0 km/h (0 Bft) SW 225 1,8 C 0,0 C 0,0 km/h (0 Bft)
05.04.2014 03:40 5,8 C 76 % 1010,6 hPa 0,0 l/m 0,0 km/h (0 Bft) SW 225 1,9 C 0,0 C 0,0 km/h (0 Bft)
05.04.2014 03:45 6,0 C 74 % 1010,6 hPa 0,0 l/m 0,0 km/h (0 Bft) SW 225 1,7 C 0,0 C 0,0 km/h (0 Bft)
05.04.2014 03:50 6,3 C 74 % 1010,6 hPa 0,0 l/m 0,0 km/h (0 Bft) SW 225 2,0 C 0,0 C 0,0 km/h (0 Bft)
05.04.2014 03:55 6,5 C 73 % 1010,6 hPa 0,0 l/m 0,0 km/h (0 Bft) SW 225 2,0 C 0,0 C 0,0 km/h (0 Bft)
05.04.2014 04:00 6,6 C 72 % 1010,6 hPa 0,0 l/m 0,0 km/h (0 Bft) SW 225 1,9 C 0,0 C 0,0 km/h (0 Bft)
05.04.2014 04:05 6,3 C 72 % 1010,6 hPa 0,0 l/m 0,0 km/h (0 Bft) SW 225 1,6 C 0,0 C 0,0 km/h (0 Bft)
05.04.2014 04:10 5,7 C 75 % 1010,4 hPa 0,0 l/m 0,0 km/h (0 Bft) SW 225 1,6 C 0,0 C 0,0 km/h (0 Bft)
05.04.2014 04:15 6,0 C 76 % 1010,4 hPa 0,0 l/m 0,0 km/h (0 Bft) SW 225 2,1 C 0,0 C 0,0 km/h (0 Bft)
05.04.2014 04:20 6,0 C 76 % 1010,4 hPa 0,0 l/m 0,0 km/h (0 Bft) SW 225 2,1 C 0,0 C 0,0 km/h (0 Bft)
05.04.2014 04:25 6,1 C 76 % 1010,4 hPa 0,0 l/m 0,0 km/h (0 Bft) SW 225 2,2 C 0,0 C 0,0 km/h (0 Bft)
05.04.2014 04:30 6,3 C 76 % 1010,6 hPa 0,0 l/m 0,0 km/h (0 Bft) SW 225 2,4 C 0,0 C 0,0 km/h (0 Bft)
05.04.2014 04:35 6,5 C 75 % 1010,6 hPa 0,0 l/m 0,0 km/h (0 Bft) SW 225 2,4 C 0,0 C 0,0 km/h (0 Bft)
05.04.2014 04:40 6,5 C 75 % 1010,6 hPa 0,0 l/m 0,0 km/h (0 Bft) SW 225 2,4 C 0,0 C 0,0 km/h (0 Bft)
05.04.2014 04:45 6,4 C 75 % 1010,6 hPa 0,0 l/m 0,0 km/h (0 Bft) SW 225 2,3 C 0,0 C 0,0 km/h (0 Bft)
05.04.2014 04:50 6,5 C 74 % 1010,6 hPa 0,0 l/m 0,0 km/h (0 Bft) SW 225 2,2 C 0,0 C 0,0 km/h (0 Bft)
05.04.2014 04:55 6,3 C 74 % 1010,6 hPa 0,0 l/m 0,0 km/h (0 Bft) SW 225 2,0 C 0,0 C 0,0 km/h (0 Bft)
05.04.2014 04:59 6,2 C 75 % 1010,6 hPa 0,0 l/m 0,0 km/h (0 Bft) SW 225 2,1 C 0,0 C 0,0 km/h (0 Bft)
05.04.2014 05:00 6,2 C 75 % 1010,6 hPa 0,0 l/m 0,0 km/h (0 Bft) SW 225 2,1 C 0,0 C 0,0 km/h (0 Bft)
05.04.2014 05:05 6,4 C 75 % 1010,6 hPa 0,0 l/m 0,0 km/h (0 Bft) SW 225 2,3 C 0,0 C 0,0 km/h (0 Bft)
05.04.2014 05:10 6,3 C 74 % 1010,5 hPa 0,0 l/m 0,0 km/h (0 Bft) SW 225 2,0 C 0,0 C 0,0 km/h (0 Bft)
05.04.2014 05:15 6,6 C 74 % 1010,5 hPa 0,0 l/m 0,0 km/h (0 Bft) SW 225 2,3 C 0,0 C 0,0 km/h (0 Bft)
05.04.2014 05:20 6,5 C 74 % 1010,5 hPa 0,0 l/m 0,0 km/h (0 Bft) SW 225 2,2 C 0,0 C 0,0 km/h (0 Bft)
05.04.2014 05:25 6,7 C 73 % 1010,5 hPa 0,0 l/m 0,0 km/h (0 Bft) SW 225 2,2 C 0,0 C 0,0 km/h (0 Bft)
05.04.2014 05:30 6,3 C 73 % 1010,6 hPa 0,0 l/m 0,0 km/h (0 Bft) SW 225 1,8 C 0,0 C 0,0 km/h (0 Bft)
05.04.2014 05:35 6,2 C 73 % 1010,6 hPa 0,0 l/m 0,0 km/h (0 Bft) SW 225 1,7 C 0,0 C 0,0 km/h (0 Bft)
05.04.2014 05:40 6,1 C 74 % 1010,6 hPa 0,0 l/m 0,0 km/h (0 Bft) SW 225 1,8 C 0,0 C 0,0 km/h (0 Bft)
05.04.2014 05:45 6,4 C 74 % 1010,6 hPa 0,0 l/m 0,0 km/h (0 Bft) SW 225 2,1 C 0,0 C 0,0 km/h (0 Bft)
05.04.2014 05:50 6,4 C 74 % 1010,9 hPa 0,0 l/m 0,0 km/h (0 Bft) SW 225 2,1 C 0,0 C 0,0 km/h (0 Bft)
05.04.2014 05:55 5,5 C 75 % 1010,9 hPa 0,0 l/m 0,0 km/h (0 Bft) SW 225 1,4 C 0,0 C 0,0 km/h (0 Bft)
05.04.2014 06:00 5,1 C 75 % 1010,9 hPa 0,0 l/m 0,0 km/h (0 Bft) SW 225 1,0 C 0,0 C 0,0 km/h (0 Bft)
05.04.2014 06:05 4,8 C 77 % 1010,9 hPa 0,0 l/m 0,0 km/h (0 Bft) SW 225 1,1 C 0,0 C 0,0 km/h (0 Bft)
05.04.2014 06:10 4,7 C 77 % 1011,1 hPa 0,0 l/m 0,0 km/h (0 Bft) SW 225 1,0 C 0,0 C 0,0 km/h (0 Bft)
05.04.2014 06:15 4,6 C 78 % 1011,1 hPa 0,0 l/m 0,0 km/h (0 Bft) SW 225 1,1 C 0,0 C 0,0 km/h (0 Bft)
05.04.2014 06:20 4,7 C 78 % 1011,1 hPa 0,0 l/m 0,0 km/h (0 Bft) SW 225 1,2 C 0,0 C 0,0 km/h (0 Bft)
05.04.2014 06:25 4,6 C 78 % 1011,1 hPa 0,0 l/m 0,0 km/h (0 Bft) SW 225 1,1 C 0,0 C 0,0 km/h (0 Bft)
05.04.2014 06:30 4,7 C 78 % 1011,3 hPa 0,0 l/m 0,0 km/h (0 Bft) SW 225 1,2 C 0,0 C 0,0 km/h (0 Bft)
05.04.2014 06:35 5,2 C 79 % 1011,3 hPa 0,0 l/m 0,0 km/h (0 Bft) SW 225 1,9 C 0,0 C 0,0 km/h (0 Bft)
05.04.2014 06:40 5,3 C 79 % 1011,3 hPa 0,0 l/m 0,0 km/h (0 Bft) SW 225 2,0 C 0,0 C 0,0 km/h (0 Bft)
05.04.2014 06:45 6,7 C 79 % 1011,3 hPa 0,0 l/m 0,0 km/h (0 Bft) SW 225 3,3 C 0,0 C 0,0 km/h (0 Bft)
05.04.2014 06:50 6,8 C 78 % 1011,6 hPa 0,0 l/m 0,0 km/h (0 Bft) SW 225 3,2 C 0,0 C 0,0 km/h (0 Bft)
05.04.2014 06:55 7,2 C 76 % 1011,6 hPa 0,0 l/m 0,0 km/h (0 Bft) SW 225 3,3 C 0,0 C 0,0 km/h (0 Bft)
05.04.2014 07:00 7,2 C 75 % 1011,6 hPa 0,0 l/m 0,0 km/h (0 Bft) SW 225 3,1 C 0,0 C 0,0 km/h (0 Bft)
05.04.2014 07:05 7,2 C 75 % 1011,6 hPa 0,0 l/m 0,0 km/h (0 Bft) SW 225 3,1 C 0,0 C 0,0 km/h (0 Bft)
05.04.2014 07:10 7,2 C 75 % 1011,9 hPa 0,0 l/m 0,0 km/h (0 Bft) SW 225 3,1 C 0,0 C 0,0 km/h (0 Bft)
05.04.2014 07:15 7,0 C 74 % 1011,9 hPa 0,0 l/m 0,0 km/h (0 Bft) SW 225 2,7 C 0,0 C 0,0 km/h (0 Bft)
05.04.2014 07:20 7,1 C 74 % 1011,9 hPa 0,0 l/m 0,0 km/h (0 Bft) SW 225 2,8 C 0,0 C 0,0 km/h (0 Bft)
05.04.2014 07:25 7,2 C 73 % 1011,9 hPa 0,0 l/m 0,0 km/h (0 Bft) SW 225 2,7 C 0,0 C 0,0 km/h (0 Bft)
05.04.2014 07:30 7,4 C 73 % 1011,9 hPa 0,0 l/m 0,0 km/h (0 Bft) SW 225 2,9 C 0,0 C 0,0 km/h (0 Bft)
05.04.2014 07:35 7,6 C 72 % 1011,9 hPa 0,0 l/m 0,0 km/h (0 Bft) SW 225 2,9 C 0,0 C 0,0 km/h (0 Bft)
05.04.2014 07:40 7,7 C 72 % 1011,9 hPa 0,0 l/m 0,0 km/h (0 Bft) SW 225 3,0 C 0,0 C 0,0 km/h (0 Bft)
05.04.2014 07:45 7,9 C 72 % 1011,9 hPa 0,0 l/m 0,0 km/h (0 Bft) SW 225 3,2 C 0,0 C 0,0 km/h (0 Bft)
05.04.2014 07:50 8,0 C 72 % 1012,1 hPa 0,0 l/m 0,0 km/h (0 Bft) SW 225 3,3 C 0,0 C 0,0 km/h (0 Bft)
05.04.2014 07:55 8,2 C 72 % 1012,1 hPa 0,0 l/m 0,0 km/h (0 Bft) SW 225 3,5 C 0,0 C 0,0 km/h (0 Bft)
05.04.2014 08:00 8,3 C 72 % 1012,1 hPa 0,0 l/m 0,0 km/h (0 Bft) SW 225 3,6 C 0,0 C 0,0 km/h (0 Bft)
05.04.2014 08:05 8,4 C 72 % 1012,1 hPa 0,0 l/m 0,0 km/h (0 Bft) SW 225 3,7 C 0,0 C 0,0 km/h (0 Bft)
05.04.2014 08:10 8,4 C 72 % 1012,3 hPa 0,0 l/m 0,0 km/h (0 Bft) SW 225 3,7 C 0,0 C 0,0 km/h (0 Bft)
05.04.2014 08:15 8,7 C 73 % 1012,3 hPa 0,0 l/m 0,0 km/h (0 Bft) SW 225 4,1 C 0,0 C 0,0 km/h (0 Bft)
05.04.2014 08:20 8,7 C 72 % 1012,3 hPa 0,0 l/m 0,0 km/h (0 Bft) SW 225 3,9 C 0,0 C 0,0 km/h (0 Bft)
05.04.2014 08:25 8,9 C 72 % 1012,3 hPa 0,0 l/m 0,0 km/h (0 Bft) SW 225 4,1 C 0,0 C 0,0 km/h (0 Bft)
05.04.2014 08:30 9,1 C 71 % 1012,7 hPa 0,0 l/m 0,0 km/h (0 Bft) SW 225 4,1 C 0,0 C 0,0 km/h (0 Bft)
05.04.2014 08:35 9,2 C 69 % 1012,7 hPa 0,0 l/m 0,0 km/h (0 Bft) SW 225 3,8 C 0,0 C 0,0 km/h (0 Bft)
05.04.2014 08:40 9,3 C 69 % 1012,7 hPa 0,0 l/m 0,0 km/h (0 Bft) SW 225 3,9 C 0,0 C 0,0 km/h (0 Bft)
05.04.2014 08:45 9,5 C 68 % 1012,7 hPa 0,0 l/m 0,0 km/h (0 Bft) SW 225 3,9 C 0,0 C 0,0 km/h (0 Bft)
05.04.2014 08:50 9,7 C 67 % 1012,8 hPa 0,0 l/m 0,0 km/h (0 Bft) SW 225 3,9 C 0,0 C 0,0 km/h (0 Bft)
05.04.2014 08:55 9,9 C 67 % 1012,8 hPa 0,0 l/m 0,0 km/h (0 Bft) SW 225 4,1 C 0,0 C 0,0 km/h (0 Bft)
05.04.2014 09:00 10,1 C 66 % 1012,8 hPa 0,0 l/m 0,0 km/h (0 Bft) SW 225 4,0 C 0,0 C 0,0 km/h (0 Bft)
05.04.2014 09:05 10,4 C 66 % 1012,8 hPa 0,0 l/m 0,0 km/h (0 Bft) SW 225 4,3 C 0,0 C 0,0 km/h (0 Bft)
05.04.2014 09:10 10,6 C 65 % 1013,0 hPa 0,0 l/m 0,0 km/h (0 Bft) SW 225 4,3 C 0,0 C 0,0 km/h (0 Bft)
05.04.2014 09:15 10,9 C 65 % 1013,0 hPa 0,0 l/m 0,0 km/h (0 Bft) SW 225 4,6 C 0,0 C 0,0 km/h (0 Bft)
05.04.2014 09:20 11,1 C 63 % 1013,0 hPa 0,0 l/m 0,0 km/h (0 Bft) SW 225 4,3 C 0,0 C 0,0 km/h (0 Bft)
05.04.2014 09:25 11,4 C 62 % 1013,0 hPa 0,0 l/m 0,0 km/h (0 Bft) SW 225 4,4 C 0,0 C 0,0 km/h (0 Bft)
05.04.2014 09:30 11,7 C 62 % 1013,6 hPa 0,0 l/m 0,0 km/h (0 Bft) SW 225 4,7 C 0,0 C 0,0 km/h (0 Bft)
05.04.2014 09:35 12,0 C 59 % 1013,6 hPa 0,0 l/m 0,0 km/h (0 Bft) SW 225 4,2 C 0,0 C 0,0 km/h (0 Bft)
05.04.2014 09:40 12,3 C 59 % 1013,6 hPa 0,0 l/m 0,0 km/h (0 Bft) SW 225 4,5 C 0,0 C 0,0 km/h (0 Bft)
05.04.2014 09:45 12,4 C 59 % 1013,6 hPa 0,0 l/m 0,0 km/h (0 Bft) SW 225 4,6 C 0,0 C 0,0 km/h (0 Bft)
05.04.2014 09:50 12,6 C 59 % 1013,9 hPa 0,0 l/m 0,0 km/h (0 Bft) SW 225 4,8 C 0,0 C 0,0 km/h (0 Bft)
05.04.2014 09:54 13,0 C 59 % 1013,9 hPa 0,0 l/m 0,0 km/h (0 Bft) SW 225 5,2 C 0,0 C 0,0 km/h (0 Bft)
05.04.2014 09:55 13,0 C 59 % 1013,9 hPa 0,0 l/m 0,0 km/h (0 Bft) SW 225 5,2 C 0,0 C 0,0 km/h (0 Bft)
05.04.2014 10:00 13,4 C 59 % 1013,9 hPa 0,0 l/m 0,0 km/h (0 Bft) SW 225 5,6 C 0,0 C 0,0 km/h (0 Bft)
05.04.2014 10:05 13,5 C 60 % 1013,9 hPa 0,0 l/m 0,0 km/h (0 Bft) SW 225 5,9 C 0,0 C 0,0 km/h (0 Bft)
05.04.2014 10:10 13,6 C 59 % 1014,3 hPa 0,0 l/m 0,0 km/h (0 Bft) SW 225 5,7 C 0,0 C 0,0 km/h (0 Bft)
05.04.2014 10:15 13,5 C 60 % 1014,3 hPa 0,0 l/m 0,0 km/h (0 Bft) SW 225 5,9 C 0,0 C 0,0 km/h (0 Bft)
05.04.2014 10:20 13,6 C 60 % 1014,3 hPa 0,0 l/m 0,0 km/h (0 Bft) SW 225 6,0 C 0,0 C 0,0 km/h (0 Bft)
05.04.2014 10:25 13,3 C 60 % 1014,3 hPa 0,0 l/m 0,0 km/h (0 Bft) SW 225 5,7 C 0,0 C 0,0 km/h (0 Bft)
05.04.2014 10:30 13,3 C 61 % 1014,6 hPa 0,0 l/m 0,0 km/h (0 Bft) SW 225 5,9 C 0,0 C 0,0 km/h (0 Bft)
05.04.2014 10:35 13,4 C 61 % 1014,6 hPa 0,0 l/m 0,0 km/h (0 Bft) SW 225 6,0 C 0,0 C 0,0 km/h (0 Bft)
05.04.2014 10:40 13,5 C 61 % 1014,6 hPa 0,0 l/m 0,0 km/h (0 Bft) SW 225 6,1 C 0,0 C 0,0 km/h (0 Bft)
05.04.2014 10:45 13,5 C 62 % 1014,6 hPa 0,0 l/m 0,0 km/h (0 Bft) SW 225 6,4 C 0,0 C 0,0 km/h (0 Bft)
05.04.2014 10:50 13,7 C 62 % 1014,7 hPa 0,0 l/m 0,0 km/h (0 Bft) SW 225 6,6 C 0,0 C 0,0 km/h (0 Bft)
05.04.2014 10:55 14,1 C 62 % 1014,7 hPa 0,0 l/m 0,0 km/h (0 Bft) SW 225 6,9 C 0,0 C 0,0 km/h (0 Bft)
05.04.2014 11:00 14,1 C 62 % 1014,7 hPa 0,0 l/m 0,0 km/h (0 Bft) SW 225 6,9 C 0,0 C 0,0 km/h (0 Bft)
05.04.2014 11:05 14,0 C 62 % 1014,7 hPa 0,0 l/m 0,0 km/h (0 Bft) SW 225 6,8 C 0,0 C 0,0 km/h (0 Bft)
05.04.2014 11:10 14,0 C 62 % 1014,8 hPa 0,0 l/m 0,0 km/h (0 Bft) SW 225 6,8 C 0,0 C 0,0 km/h (0 Bft)
05.04.2014 11:15 14,3 C 63 % 1014,8 hPa 0,0 l/m 0,0 km/h (0 Bft) SW 225 7,4 C 0,0 C 0,0 km/h (0 Bft)
05.04.2014 11:20 14,8 C 62 % 1014,8 hPa 0,0 l/m 0,0 km/h (0 Bft) SW 225 7,6 C 0,0 C 0,0 km/h (0 Bft)
05.04.2014 11:25 14,9 C 59 % 1014,8 hPa 0,0 l/m 0,0 km/h (0 Bft) SW 225 7,0 C 0,0 C 0,0 km/h (0 Bft)
05.04.2014 11:30 14,7 C 60 % 1015,1 hPa 0,0 l/m 0,0 km/h (0 Bft) SW 225 7,0 C 0,0 C 0,0 km/h (0 Bft)
05.04.2014 11:35 14,9 C 59 % 1015,1 hPa 0,0 l/m 0,0 km/h (0 Bft) SW 225 7,0 C 0,0 C 0,0 km/h (0 Bft)
05.04.2014 11:40 15,3 C 59 % 1015,1 hPa 0,0 l/m 0,0 km/h (0 Bft) SW 225 7,3 C 0,0 C 0,0 km/h (0 Bft)
05.04.2014 11:45 15,1 C 60 % 1015,1 hPa 0,0 l/m 0,0 km/h (0 Bft) SW 225 7,4 C 0,0 C 0,0 km/h (0 Bft)
05.04.2014 11:50 14,6 C 61 % 1015,4 hPa 0,0 l/m 0,0 km/h (0 Bft) SW 225 7,2 C 0,0 C 0,0 km/h (0 Bft)
05.04.2014 11:55 14,6 C 63 % 1015,4 hPa 0,0 l/m 0,0 km/h (0 Bft) SW 225 7,6 C 0,0 C 0,0 km/h (0 Bft)
05.04.2014 12:00 14,2 C 63 % 1015,4 hPa 0,0 l/m 0,0 km/h (0 Bft) SW 225 7,3 C 0,0 C 0,0 km/h (0 Bft)
05.04.2014 12:05 14,1 C 64 % 1015,4 hPa 0,0 l/m 0,0 km/h (0 Bft) SW 225 7,4 C 0,0 C 0,0 km/h (0 Bft)
05.04.2014 12:10 13,9 C 64 % 1015,5 hPa 0,0 l/m 0,0 km/h (0 Bft) SW 225 7,2 C 0,0 C 0,0 km/h (0 Bft)
05.04.2014 12:15 13,9 C 64 % 1015,5 hPa 0,0 l/m 0,0 km/h (0 Bft) SW 225 7,2 C 0,0 C 0,0 km/h (0 Bft)
05.04.2014 12:20 13,7 C 65 % 1015,5 hPa 0,0 l/m 0,0 km/h (0 Bft) SW 225 7,2 C 0,0 C 0,0 km/h (0 Bft)
05.04.2014 12:25 13,9 C 64 % 1015,5 hPa 0,0 l/m 0,0 km/h (0 Bft) SW 225 7,2 C 0,0 C 0,0 km/h (0 Bft)
05.04.2014 12:30 14,1 C 64 % 1015,6 hPa 0,0 l/m 0,0 km/h (0 Bft) SW 225 7,4 C 0,0 C 0,0 km/h (0 Bft)
05.04.2014 12:35 14,7 C 62 % 1015,6 hPa 0,0 l/m 0,0 km/h (0 Bft) SW 225 7,5 C 0,0 C 0,0 km/h (0 Bft)
05.04.2014 12:40 15,1 C 61 % 1015,6 hPa 0,0 l/m 0,0 km/h (0 Bft) SW 225 7,6 C 0,0 C 0,0 km/h (0 Bft)
05.04.2014 12:45 14,8 C 60 % 1015,6 hPa 0,0 l/m 0,0 km/h (0 Bft) SW 225 7,1 C 0,0 C 0,0 km/h (0 Bft)
05.04.2014 12:50 14,9 C 61 % 1015,9 hPa 0,0 l/m 0,0 km/h (0 Bft) SW 225 7,4 C 0,0 C 0,0 km/h (0 Bft)
05.04.2014 12:55 15,7 C 59 % 1015,9 hPa 0,0 l/m 0,0 km/h (0 Bft) SW 225 7,7 C 0,0 C 0,0 km/h (0 Bft)
05.04.2014 13:00 15,5 C 59 % 1015,9 hPa 0,0 l/m 0,0 km/h (0 Bft) SW 225 7,5 C 0,0 C 0,0 km/h (0 Bft)
05.04.2014 13:05 15,8 C 58 % 1015,9 hPa 0,0 l/m 0,0 km/h (0 Bft) SW 225 7,6 C 0,0 C 0,0 km/h (0 Bft)
05.04.2014 13:10 15,8 C 58 % 1016,2 hPa 0,0 l/m 0,0 km/h (0 Bft) SW 225 7,6 C 0,0 C 0,0 km/h (0 Bft)
05.04.2014 13:15 15,9 C 57 % 1016,2 hPa 0,0 l/m 0,0 km/h (0 Bft) SW 225 7,4 C 0,0 C 0,0 km/h (0 Bft)
05.04.2014 13:20 16,0 C 57 % 1016,2 hPa 0,0 l/m 0,0 km/h (0 Bft) SW 225 7,5 C 0,0 C 0,0 km/h (0 Bft)
05.04.2014 13:25 16,0 C 56 % 1016,2 hPa 0,0 l/m 0,0 km/h (0 Bft) SW 225 7,2 C 0,0 C 0,0 km/h (0 Bft)
05.04.2014 13:30 16,1 C 57 % 1016,2 hPa 0,0 l/m 0,0 km/h (0 Bft) SW 225 7,6 C 0,0 C 0,0 km/h (0 Bft)
05.04.2014 13:35 15,6 C 58 % 1016,2 hPa 0,0 l/m 0,0 km/h (0 Bft) SW 225 7,4 C 0,0 C 0,0 km/h (0 Bft)
05.04.2014 13:40 15,4 C 59 % 1016,2 hPa 0,0 l/m 0,0 km/h (0 Bft) SW 225 7,4 C 0,0 C 0,0 km/h (0 Bft)
05.04.2014 13:45 15,3 C 59 % 1016,2 hPa 0,0 l/m 0,0 km/h (0 Bft) SW 225 7,3 C 0,0 C 0,0 km/h (0 Bft)
05.04.2014 13:50 15,3 C 58 % 1016,2 hPa 0,0 l/m 0,0 km/h (0 Bft) SW 225 7,1 C 0,0 C 0,0 km/h (0 Bft)
05.04.2014 13:55 15,2 C 58 % 1016,2 hPa 0,0 l/m 0,0 km/h (0 Bft) SW 225 7,0 C 0,0 C 0,0 km/h (0 Bft)
05.04.2014 14:00 15,0 C 59 % 1016,2 hPa 0,0 l/m 0,0 km/h (0 Bft) SW 225 7,1 C 0,0 C 0,0 km/h (0 Bft)
05.04.2014 14:05 15,3 C 59 % 1016,2 hPa 0,0 l/m 0,0 km/h (0 Bft) SW 225 7,3 C 0,0 C 0,0 km/h (0 Bft)
05.04.2014 14:10 15,2 C 59 % 1016,2 hPa 0,0 l/m 0,0 km/h (0 Bft) SW 225 7,2 C 0,0 C 0,0 km/h (0 Bft)
05.04.2014 14:15 14,8 C 60 % 1016,2 hPa 0,0 l/m 0,0 km/h (0 Bft) SW 225 7,1 C 0,0 C 0,0 km/h (0 Bft)
05.04.2014 14:20 14,9 C 60 % 1016,2 hPa 0,0 l/m 0,0 km/h (0 Bft) SW 225 7,2 C 0,0 C 0,0 km/h (0 Bft)
05.04.2014 14:25 14,9 C 59 % 1016,2 hPa 0,0 l/m 0,0 km/h (0 Bft) SW 225 7,0 C 0,0 C 0,0 km/h (0 Bft)
05.04.2014 14:30 15,1 C 59 % 1016,3 hPa 0,0 l/m 0,0 km/h (0 Bft) SW 225 7,1 C 0,0 C 0,0 km/h (0 Bft)
05.04.2014 14:35 15,8 C 59 % 1016,3 hPa 0,0 l/m 0,0 km/h (0 Bft) SW 225 7,8 C 0,0 C 0,0 km/h (0 Bft)
05.04.2014 14:40 15,5 C 57 % 1016,3 hPa 0,0 l/m 0,0 km/h (0 Bft) SW 225 7,0 C 0,0 C 0,0 km/h (0 Bft)
05.04.2014 14:45 14,9 C 60 % 1016,3 hPa 0,0 l/m 0,0 km/h (0 Bft) SW 225 7,2 C 0,0 C 0,0 km/h (0 Bft)
05.04.2014 14:50 15,1 C 59 % 1016,4 hPa 0,0 l/m 0,0 km/h (0 Bft) SW 225 7,1 C 0,0 C 0,0 km/h (0 Bft)
05.04.2014 14:54 14,7 C 60 % 1016,4 hPa 0,0 l/m 0,0 km/h (0 Bft) SW 225 7,0 C 0,0 C 0,0 km/h (0 Bft)
05.04.2014 14:55 14,7 C 60 % 1016,4 hPa 0,0 l/m 0,0 km/h (0 Bft) SW 225 7,0 C 0,0 C 0,0 km/h (0 Bft)
05.04.2014 15:00 14,2 C 61 % 1016,4 hPa 0,0 l/m 0,0 km/h (0 Bft) SW 225 6,8 C 0,0 C 0,0 km/h (0 Bft)
05.04.2014 15:05 14,3 C 62 % 1016,4 hPa 0,0 l/m 0,0 km/h (0 Bft) SW 225 7,1 C 0,0 C 0,0 km/h (0 Bft)
05.04.2014 15:10 14,5 C 62 % 1016,4 hPa 0,0 l/m 0,0 km/h (0 Bft) SW 225 7,3 C 0,0 C 0,0 km/h (0 Bft)
05.04.2014 15:15 14,8 C 63 % 1016,4 hPa 0,0 l/m 0,0 km/h (0 Bft) SW 225 7,8 C 0,0 C 0,0 km/h (0 Bft)
05.04.2014 15:20 14,7 C 62 % 1016,4 hPa 0,0 l/m 0,0 km/h (0 Bft) SW 225 7,5 C 0,0 C 0,0 km/h (0 Bft)
05.04.2014 15:25 15,6 C 59 % 1016,4 hPa 0,0 l/m 0,0 km/h (0 Bft) SW 225 7,6 C 0,0 C 0,0 km/h (0 Bft)
05.04.2014 15:30 15,5 C 59 % 1016,4 hPa 0,0 l/m 0,0 km/h (0 Bft) SW 225 7,5 C 0,0 C 0,0 km/h (0 Bft)
05.04.2014 15:35 15,2 C 61 % 1016,4 hPa 0,0 l/m 0,0 km/h (0 Bft) SW 225 7,7 C 0,0 C 0,0 km/h (0 Bft)
05.04.2014 15:40 15,1 C 62 % 1016,4 hPa 0,0 l/m 0,0 km/h (0 Bft) SW 225 7,9 C 0,0 C 0,0 km/h (0 Bft)
05.04.2014 15:45 14,2 C 63 % 1016,4 hPa 0,0 l/m 0,0 km/h (0 Bft) SW 225 7,3 C 0,0 C 0,0 km/h (0 Bft)
05.04.2014 15:50 13,9 C 64 % 1016,5 hPa 0,0 l/m 0,0 km/h (0 Bft) SW 225 7,2 C 0,0 C 0,0 km/h (0 Bft)
05.04.2014 15:55 14,0 C 64 % 1016,5 hPa 0,0 l/m 0,0 km/h (0 Bft) SW 225 7,3 C 0,0 C 0,0 km/h (0 Bft)
05.04.2014 16:00 14,0 C 64 % 1016,5 hPa 0,0 l/m 0,0 km/h (0 Bft) SW 225 7,3 C 0,0 C 0,0 km/h (0 Bft)
05.04.2014 16:05 14,8 C 64 % 1016,5 hPa 0,0 l/m 0,0 km/h (0 Bft) SW 225 8,1 C 0,0 C 0,0 km/h (0 Bft)
05.04.2014 16:10 14,9 C 63 % 1016,6 hPa 0,0 l/m 0,0 km/h (0 Bft) SW 225 7,9 C 0,0 C 0,0 km/h (0 Bft)
05.04.2014 16:15 14,3 C 64 % 1016,6 hPa 0,0 l/m 0,0 km/h (0 Bft) SW 225 7,6 C 0,0 C 0,0 km/h (0 Bft)
05.04.2014 16:20 14,1 C 65 % 1016,6 hPa 0,0 l/m 0,0 km/h (0 Bft) SW 225 7,6 C 0,0 C 0,0 km/h (0 Bft)
05.04.2014 16:25 13,5 C 66 % 1016,6 hPa 0,0 l/m 0,0 km/h (0 Bft) SW 225 7,3 C 0,0 C 0,0 km/h (0 Bft)
05.04.2014 16:30 13,5 C 67 % 1016,5 hPa 0,0 l/m 0,0 km/h (0 Bft) SW 225 7,5 C 0,0 C 0,0 km/h (0 Bft)
05.04.2014 16:35 13,8 C 66 % 1016,5 hPa 0,0 l/m 0,0 km/h (0 Bft) SW 225 7,6 C 0,0 C 0,0 km/h (0 Bft)
05.04.2014 16:40 13,7 C 67 % 1016,5 hPa 0,0 l/m 0,0 km/h (0 Bft) SW 225 7,7 C 0,0 C 0,0 km/h (0 Bft)
05.04.2014 16:45 14,0 C 66 % 1016,5 hPa 0,0 l/m 0,0 km/h (0 Bft) SW 225 7,7 C 0,0 C 0,0 km/h (0 Bft)
05.04.2014 16:50 14,1 C 65 % 1016,7 hPa 0,0 l/m 0,0 km/h (0 Bft) SW 225 7,6 C 0,0 C 0,0 km/h (0 Bft)
05.04.2014 16:55 14,1 C 66 % 1016,7 hPa 0,0 l/m 0,0 km/h (0 Bft) SW 225 7,8 C 0,0 C 0,0 km/h (0 Bft)
05.04.2014 17:00 13,8 C 66 % 1016,7 hPa 0,0 l/m 0,0 km/h (0 Bft) SW 225 7,6 C 0,0 C 0,0 km/h (0 Bft)
05.04.2014 17:05 13,5 C 67 % 1016,7 hPa 0,0 l/m 0,0 km/h (0 Bft) SW 225 7,5 C 0,0 C 0,0 km/h (0 Bft)
05.04.2014 17:10 13,7 C 68 % 1016,9 hPa 0,0 l/m 0,0 km/h (0 Bft) SW 225 7,9 C 0,0 C 0,0 km/h (0 Bft)
05.04.2014 17:15 13,4 C 68 % 1016,9 hPa 0,0 l/m 0,0 km/h (0 Bft) SW 225 7,6 C 0,0 C 0,0 km/h (0 Bft)
05.04.2014 17:20 13,2 C 68 % 1016,9 hPa 0,0 l/m 0,0 km/h (0 Bft) SW 225 7,4 C 0,0 C 0,0 km/h (0 Bft)
05.04.2014 17:25 13,2 C 69 % 1016,9 hPa 0,0 l/m 0,0 km/h (0 Bft) SW 225 7,6 C 0,0 C 0,0 km/h (0 Bft)
05.04.2014 17:30 13,1 C 69 % 1016,6 hPa 0,0 l/m 0,0 km/h (0 Bft) SW 225 7,5 C 0,0 C 0,0 km/h (0 Bft)
05.04.2014 17:35 12,9 C 71 % 1016,6 hPa 0,0 l/m 0,0 km/h (0 Bft) SW 225 7,8 C 0,0 C 0,0 km/h (0 Bft)
05.04.2014 17:40 12,7 C 71 % 1016,6 hPa 0,0 l/m 0,0 km/h (0 Bft) SW 225 7,6 C 0,0 C 0,0 km/h (0 Bft)
05.04.2014 17:45 12,8 C 71 % 1016,6 hPa 0,0 l/m 0,0 km/h (0 Bft) SW 225 7,7 C 0,0 C 0,0 km/h (0 Bft)
05.04.2014 17:50 12,9 C 71 % 1016,2 hPa 0,0 l/m 0,0 km/h (0 Bft) SW 225 7,8 C 0,0 C 0,0 km/h (0 Bft)
05.04.2014 17:55 12,7 C 71 % 1016,2 hPa 0,0 l/m 0,0 km/h (0 Bft) SW 225 7,6 C 0,0 C 0,0 km/h (0 Bft)
05.04.2014 18:00 12,7 C 71 % 1016,2 hPa 0,0 l/m 0,0 km/h (0 Bft) SW 225 7,6 C 0,0 C 0,0 km/h (0 Bft)
05.04.2014 18:05 12,6 C 72 % 1016,2 hPa 0,0 l/m 0,0 km/h (0 Bft) SW 225 7,7 C 0,0 C 0,0 km/h (0 Bft)
05.04.2014 18:10 12,5 C 72 % 1016,5 hPa 0,0 l/m 0,0 km/h (0 Bft) SW 225 7,6 C 0,0 C 0,0 km/h (0 Bft)
05.04.2014 18:15 12,5 C 72 % 1016,5 hPa 0,0 l/m 0,0 km/h (0 Bft) SW 225 7,6 C 0,0 C 0,0 km/h (0 Bft)
05.04.2014 18:20 12,4 C 72 % 1016,5 hPa 0,0 l/m 0,0 km/h (0 Bft) SW 225 7,5 C 0,0 C 0,0 km/h (0 Bft)
05.04.2014 18:25 12,3 C 72 % 1016,5 hPa 0,0 l/m 0,0 km/h (0 Bft) SW 225 7,4 C 0,0 C 0,0 km/h (0 Bft)
05.04.2014 18:30 12,3 C 73 % 1016,6 hPa 0,0 l/m 0,0 km/h (0 Bft) SW 225 7,6 C 0,0 C 0,0 km/h (0 Bft)
05.04.2014 18:35 12,1 C 73 % 1016,6 hPa 0,0 l/m 0,0 km/h (0 Bft) SW 225 7,4 C 0,0 C 0,0 km/h (0 Bft)
05.04.2014 18:40 12,1 C 73 % 1016,6 hPa 0,0 l/m 0,0 km/h (0 Bft) SW 225 7,4 C 0,0 C 0,0 km/h (0 Bft)
05.04.2014 18:45 12,0 C 74 % 1016,6 hPa 0,0 l/m 0,0 km/h (0 Bft) SW 225 7,5 C 0,0 C 0,0 km/h (0 Bft)
05.04.2014 18:50 12,0 C 74 % 1016,8 hPa 0,0 l/m 0,0 km/h (0 Bft) SW 225 7,5 C 0,0 C 0,0 km/h (0 Bft)
05.04.2014 18:55 11,8 C 74 % 1016,8 hPa 0,0 l/m 0,0 km/h (0 Bft) SW 225 7,3 C 0,0 C 0,0 km/h (0 Bft)
05.04.2014 19:00 11,8 C 75 % 1016,8 hPa 0,0 l/m 0,0 km/h (0 Bft) SW 225 7,5 C 0,0 C 0,0 km/h (0 Bft)
05.04.2014 19:05 11,8 C 75 % 1016,8 hPa 0,0 l/m 0,0 km/h (0 Bft) SW 225 7,5 C 0,0 C 0,0 km/h (0 Bft)
05.04.2014 19:10 11,7 C 75 % 1016,8 hPa 0,0 l/m 0,0 km/h (0 Bft) SW 225 7,4 C 0,0 C 0,0 km/h (0 Bft)
05.04.2014 19:15 11,6 C 75 % 1016,8 hPa 0,0 l/m 0,0 km/h (0 Bft) SW 225 7,3 C 0,0 C 0,0 km/h (0 Bft)
05.04.2014 19:20 11,5 C 75 % 1016,8 hPa 0,0 l/m 0,0 km/h (0 Bft) SW 225 7,2 C 0,0 C 0,0 km/h (0 Bft)
05.04.2014 19:25 11,3 C 75 % 1016,8 hPa 0,0 l/m 0,0 km/h (0 Bft) SW 225 7,0 C 0,0 C 0,0 km/h (0 Bft)
05.04.2014 19:30 11,1 C 76 % 1016,9 hPa 0,0 l/m 0,0 km/h (0 Bft) SW 225 7,0 C 0,0 C 0,0 km/h (0 Bft)
05.04.2014 19:35 11,0 C 76 % 1016,9 hPa 0,0 l/m 0,0 km/h (0 Bft) SW 225 6,9 C 0,0 C 0,0 km/h (0 Bft)
05.04.2014 19:40 10,9 C 77 % 1016,9 hPa 0,0 l/m 0,0 km/h (0 Bft) SW 225 7,0 C 0,0 C 0,0 km/h (0 Bft)
05.04.2014 19:45 10,9 C 78 % 1016,9 hPa 0,0 l/m 0,0 km/h (0 Bft) SW 225 7,2 C 0,0 C 0,0 km/h (0 Bft)
05.04.2014 19:50 10,9 C 78 % 1017,1 hPa 0,0 l/m 0,0 km/h (0 Bft) SW 225 7,2 C 0,0 C 0,0 km/h (0 Bft)
05.04.2014 19:54 10,8 C 78 % 1017,1 hPa 0,0 l/m 0,0 km/h (0 Bft) SW 225 7,1 C 0,0 C 0,0 km/h (0 Bft)
05.04.2014 19:55 10,8 C 78 % 1017,1 hPa 0,0 l/m 0,0 km/h (0 Bft) SW 225 7,1 C 0,0 C 0,0 km/h (0 Bft)
05.04.2014 20:00 10,8 C 78 % 1017,1 hPa 0,0 l/m 0,0 km/h (0 Bft) SW 225 7,1 C 0,0 C 0,0 km/h (0 Bft)
05.04.2014 20:05 10,7 C 78 % 1017,1 hPa 0,0 l/m 0,0 km/h (0 Bft) SW 225 7,0 C 0,0 C 0,0 km/h (0 Bft)
05.04.2014 20:10 10,6 C 78 % 1017,0 hPa 0,0 l/m 0,0 km/h (0 Bft) SW 225 6,9 C 0,0 C 0,0 km/h (0 Bft)
05.04.2014 20:15 10,5 C 78 % 1017,0 hPa 0,0 l/m 0,0 km/h (0 Bft) SW 225 6,8 C 0,0 C 0,0 km/h (0 Bft)
05.04.2014 20:20 10,4 C 79 % 1017,0 hPa 0,0 l/m 0,0 km/h (0 Bft) SW 225 6,9 C 0,0 C 0,0 km/h (0 Bft)
05.04.2014 20:25 10,5 C 79 % 1017,0 hPa 0,0 l/m 0,0 km/h (0 Bft) SW 225 7,0 C 0,0 C 0,0 km/h (0 Bft)
05.04.2014 20:30 10,4 C 79 % 1017,2 hPa 0,0 l/m 0,0 km/h (0 Bft) SW 225 6,9 C 0,0 C 0,0 km/h (0 Bft)
05.04.2014 20:35 10,2 C 79 % 1017,2 hPa 0,0 l/m 0,0 km/h (0 Bft) SW 225 6,7 C 0,0 C 0,0 km/h (0 Bft)
05.04.2014 20:40 10,1 C 79 % 1017,2 hPa 0,0 l/m 0,0 km/h (0 Bft) SW 225 6,6 C 0,0 C 0,0 km/h (0 Bft)
05.04.2014 20:45 10,0 C 79 % 1017,2 hPa 0,0 l/m 0,0 km/h (0 Bft) SW 225 6,5 C 0,0 C 0,0 km/h (0 Bft)
05.04.2014 20:50 9,8 C 79 % 1017,2 hPa 0,0 l/m 0,0 km/h (0 Bft) SW 225 6,3 C 0,0 C 0,0 km/h (0 Bft)
05.04.2014 20:55 9,6 C 79 % 1017,2 hPa 0,0 l/m 0,0 km/h (0 Bft) SW 225 6,1 C 0,0 C 0,0 km/h (0 Bft)
05.04.2014 21:00 9,8 C 79 % 1017,2 hPa 0,0 l/m 0,0 km/h (0 Bft) SW 225 6,3 C 0,0 C 0,0 km/h (0 Bft)
05.04.2014 21:05 10,1 C 79 % 1017,2 hPa 0,0 l/m 0,0 km/h (0 Bft) SW 225 6,6 C 0,0 C 0,0 km/h (0 Bft)
05.04.2014 21:10 10,1 C 79 % 1017,6 hPa 0,0 l/m 0,0 km/h (0 Bft) SW 225 6,6 C 0,0 C 0,0 km/h (0 Bft)
05.04.2014 21:15 10,2 C 79 % 1017,6 hPa 0,0 l/m 0,0 km/h (0 Bft) SW 225 6,7 C 0,0 C 0,0 km/h (0 Bft)
05.04.2014 21:20 10,2 C 79 % 1017,6 hPa 0,0 l/m 0,0 km/h (0 Bft) SW 225 6,7 C 0,0 C 0,0 km/h (0 Bft)
05.04.2014 21:25 10,1 C 79 % 1017,6 hPa 0,0 l/m 0,0 km/h (0 Bft) SW 225 6,6 C 0,0 C 0,0 km/h (0 Bft)
05.04.2014 21:30 10,1 C 79 % 1017,8 hPa 0,0 l/m 0,0 km/h (0 Bft) SW 225 6,6 C 0,0 C 0,0 km/h (0 Bft)
05.04.2014 21:35 10,0 C 79 % 1017,8 hPa 0,0 l/m 0,0 km/h (0 Bft) SW 225 6,5 C 0,0 C 0,0 km/h (0 Bft)
05.04.2014 21:40 10,0 C 80 % 1017,8 hPa 0,0 l/m 0,0 km/h (0 Bft) SW 225 6,7 C 0,0 C 0,0 km/h (0 Bft)
05.04.2014 21:45 10,0 C 80 % 1017,8 hPa 0,0 l/m 0,0 km/h (0 Bft) SW 225 6,7 C 0,0 C 0,0 km/h (0 Bft)
05.04.2014 21:50 10,1 C 80 % 1017,8 hPa 0,0 l/m 0,0 km/h (0 Bft) SW 225 6,8 C 0,0 C 0,0 km/h (0 Bft)
05.04.2014 21:55 10,1 C 80 % 1017,8 hPa 0,0 l/m 0,0 km/h (0 Bft) SW 225 6,8 C 0,0 C 0,0 km/h (0 Bft)
05.04.2014 22:00 10,1 C 80 % 1017,8 hPa 0,0 l/m 0,0 km/h (0 Bft) SW 225 6,8 C 0,0 C 0,0 km/h (0 Bft)
05.04.2014 22:05 9,9 C 80 % 1017,8 hPa 0,0 l/m 0,0 km/h (0 Bft) SW 225 6,6 C 0,0 C 0,0 km/h (0 Bft)
05.04.2014 22:10 9,9 C 81 % 1017,9 hPa 0,0 l/m 0,0 km/h (0 Bft) SW 225 6,8 C 0,0 C 0,0 km/h (0 Bft)
05.04.2014 22:15 10,1 C 81 % 1017,9 hPa 0,0 l/m 0,0 km/h (0 Bft) SW 225 7,0 C 0,0 C 0,0 km/h (0 Bft)
05.04.2014 22:20 10,1 C 81 % 1017,9 hPa 0,0 l/m 0,0 km/h (0 Bft) SW 225 7,0 C 0,0 C 0,0 km/h (0 Bft)
05.04.2014 22:25 10,1 C 81 % 1017,9 hPa 0,0 l/m 0,0 km/h (0 Bft) SW 225 7,0 C 0,0 C 0,0 km/h (0 Bft)
05.04.2014 22:30 10,1 C 81 % 1018,2 hPa 0,0 l/m 0,0 km/h (0 Bft) SW 225 7,0 C 0,0 C 0,0 km/h (0 Bft)
05.04.2014 22:35 10,0 C 81 % 1018,2 hPa 0,0 l/m 0,0 km/h (0 Bft) SW 225 6,9 C 0,0 C 0,0 km/h (0 Bft)
05.04.2014 22:40 10,0 C 81 % 1018,2 hPa 0,0 l/m 0,0 km/h (0 Bft) SW 225 6,9 C 0,0 C 0,0 km/h (0 Bft)
05.04.2014 22:45 9,9 C 82 % 1018,2 hPa 0,0 l/m 0,0 km/h (0 Bft) SW 225 7,0 C 0,0 C 0,0 km/h (0 Bft)
05.04.2014 22:50 9,9 C 82 % 1017,8 hPa 0,0 l/m 0,0 km/h (0 Bft) SW 225 7,0 C 0,0 C 0,0 km/h (0 Bft)
05.04.2014 22:55 9,9 C 83 % 1017,8 hPa 0,0 l/m 0,0 km/h (0 Bft) SW 225 7,2 C 0,0 C 0,0 km/h (0 Bft)
05.04.2014 23:00 9,8 C 83 % 1017,8 hPa 0,0 l/m 0,0 km/h (0 Bft) SW 225 7,1 C 0,0 C 0,0 km/h (0 Bft)
05.04.2014 23:05 9,7 C 83 % 1017,8 hPa 0,0 l/m 0,0 km/h (0 Bft) SW 225 7,0 C 0,0 C 0,0 km/h (0 Bft)
05.04.2014 23:10 9,7 C 83 % 1018,3 hPa 0,0 l/m 0,0 km/h (0 Bft) SW 225 7,0 C 0,0 C 0,0 km/h (0 Bft)
05.04.2014 23:15 9,7 C 83 % 1018,3 hPa 0,0 l/m 0,0 km/h (0 Bft) SW 225 7,0 C 0,0 C 0,0 km/h (0 Bft)
05.04.2014 23:20 9,6 C 83 % 1018,3 hPa 0,0 l/m 0,0 km/h (0 Bft) SW 225 6,9 C 0,0 C 0,0 km/h (0 Bft)
05.04.2014 23:25 9,7 C 83 % 1018,3 hPa 0,0 l/m 0,0 km/h (0 Bft) SW 225 7,0 C 0,0 C 0,0 km/h (0 Bft)
05.04.2014 23:30 9,7 C 83 % 1018,4 hPa 0,0 l/m 0,0 km/h (0 Bft) SW 225 7,0 C 0,0 C 0,0 km/h (0 Bft)
05.04.2014 23:35 9,7 C 83 % 1018,4 hPa 0,0 l/m 0,0 km/h (0 Bft) SW 225 7,0 C 0,0 C 0,0 km/h (0 Bft)
05.04.2014 23:40 9,7 C 83 % 1018,4 hPa 0,0 l/m 0,0 km/h (0 Bft) SW 225 7,0 C 0,0 C 0,0 km/h (0 Bft)
05.04.2014 23:45 9,7 C 83 % 1018,4 hPa 0,0 l/m 0,0 km/h (0 Bft) SW 225 7,0 C 0,0 C 0,0 km/h (0 Bft)
05.04.2014 23:50 9,7 C 83 % 1018,5 hPa 0,0 l/m 0,0 km/h (0 Bft) SW 225 7,0 C 0,0 C 0,0 km/h (0 Bft)
05.04.2014 23:55 9,9 C 83 % 1018,5 hPa 0,0 l/m 0,0 km/h (0 Bft) SW 225 7,2 C 0,0 C 0,0 km/h (0 Bft)
_ Min-Zeit 06:25 13:25 00:05 - 23:55 - - 06:10 23:55 23:55
Minimum _ 4,6 C 56 % 1010,1 hPa - 0,0 km/h (0 Bft) - - 1,0 C 0,0 C 0,0 km/h (0 Bft)
_ Max-Zeit 13:30 23:55 23:55 23:55 23:55 - - 16:05 23:55 23:55
Maximum _ 16,1 C 83 % 1018,5 hPa 0,0 l/m 0,0 km/h
SW (0 Bft)
- - 8,1 C 0,0 C 0,0 km/h
SW (0 Bft)
Durchschnitt _ 10,4 C 71 % 1014,3 hPa #0,0 l/m 0,0 km/h (0 Bft) - - - 5,3 C 0,0 C 0,0 km/h (0 Bft)